Weather reports worldwide

Advertisment
Dorans, France (7296): temperature & dewpoint: 07.12.2018 10:00:00 - 13.12.2018 10:00:00 (CET)Dorans, France (7296): temperature 5cm: 07.12.2018 10:00:00 - 13.12.2018 10:00:00 (CET)Dorans, France (7296): temperature -20cm & temperature -100cm: 07.12.2018 10:00:00 - 13.12.2018 10:00:00 (CET)Dorans, France (7296): wind speed & gusts: 07.12.2018 10:00:00 - 13.12.2018 10:00:00 (CET)Dorans, France (7296): wind direction: 07.12.2018 10:00:00 - 13.12.2018 10:00:00 (CET)Dorans, France (7296): reduced air pressure: 07.12.2018 10:00:00 - 13.12.2018 10:00:00 (CET)Dorans, France (7296): visibility: 07.12.2018 10:00:00 - 13.12.2018 10:00:00 (CET)Dorans, France (7296): precipitation: 07.12.2018 10:00:00 - 13.12.2018 10:00:00 (CET)
Date & Time tt [°C] td [°C] tt 5cm [°C] tt -20cm [°C] tt -100cm [°C] ff [km/h] ff [kn] fx [km/h] fx [kn] dd ppp [hPa] vv [km] rr [mm]
13.12.2018 10:00:00 -0,3 -2,0 -0,6 5,0 9,9 20 11 34 19 E 1015,4 20 0,0
13.12.2018 09:00:00 -0,8 -2,1 -0,9 5,1 9,9 16 9 29 16 E 1015,8 20 0,0
13.12.2018 08:00:00 -0,7 -1,8 -0,9 5,1 9,9 14 8 29 15 E 1015,9 17 0,0
13.12.2018 07:00:00 -0,7 -1,8 -0,9 5,1 9,9 16 8 30 16 E 1016,1 18 0,0
13.12.2018 06:00:00 -0,6 -1,4 -0,7 5,2 9,9 13 7 34 19 E 1016,2 12 0,0
13.12.2018 05:00:00 -0,6 -1,3 -0,6 5,2 9,9 18 10 35 19 E 1016,7 7 0,0
13.12.2018 04:00:00 -0,4 -1,2 -0,5 5,2 10,0 16 9 29 16 E 1017,4 6 0,0
13.12.2018 03:00:00 -0,4 -1,5 -0,6 5,3 10,0 14 7 33 18 E 1018,0 9 0,0
13.12.2018 02:00:00 -0,5 -1,5 -0,6 5,3 9,9 15 8 25 14 ENE 1018,6 8 0,0
13.12.2018 01:00:00 -0,5 -1,3 -0,7 5,3 10,0 12 7 32 17 E 1019,2 6 0,0
13.12.2018 00:00:00 -0,6 -1,3 -0,7 5,4 10,0 16 8 34 18 E 1019,8 4,1 0,0
12.12.2018 23:00:00 -0,7 -1,5 -0,7 5,4 10,0 16 9 31 17 E 1020,2 6 0,0
12.12.2018 22:00:00 -0,7 -1,4 -0,7 5,4 10,0 14 8 36 19 E 1020,7 5 0,0
12.12.2018 21:00:00 -0,7 -1,3 -0,6 5,4 10,0 14 8 31 17 E 1021,1 3,6 0,0
12.12.2018 20:00:00 -0,8 -1,2 -0,6 5,5 10,0 16 9 31 17 E 1021,5 1,6 0,0
12.12.2018 19:00:00 -0,3 -0,9 -0,4 5,5 10,0 11 6 25 13 E 1021,4 3,8 0,0
12.12.2018 18:00:00 -0,4 -1,0 -0,9 5,5 10,0 10 5 25 14 E 1021,4 3,7 0,0
12.12.2018 17:00:00 -0,4 -1,1 -0,5 5,5 10,0 11 6 30 16 E 1021,8 3,9 0,0
12.12.2018 16:00:00 -0,1 -1,0 0,0 5,5 10,0 13 7 33 18 ENE 1022,0 6 0,0
12.12.2018 15:00:00 0,1 -0,8 0,7 5,5 10,0 18 10 42 23 ENE 1022,2 9 0,0
12.12.2018 14:00:00 -0,3 -1,0 0,7 5,5 10,0 18 10 37 20 ENE 1022,7 8 0,0
12.12.2018 13:00:00 -0,6 -1,2 0,6 5,5 10,0 18 10 29 16 ENE 1023,5 5 0,0
12.12.2018 12:00:00 -1,0 -1,6 0,3 5,6 10,0 15 8 30 16 ENE 1024,2 10 0,0
12.12.2018 11:00:00 -0,7 -1,3 0,3 5,6 10,0 9 5 15 8 ENE 1024,6 9 0,0
12.12.2018 10:00:00 -1,6 -2,0 -1,6 5,6 10,0 7 4 20 11 ENE 1024,9 2,7 0,0
12.12.2018 09:00:00 -2,0 -2,3 -1,8 5,7 10,0 10 5 18 10 E 1024,7 0,3 0,0
12.12.2018 08:00:00 -2,2 -2,6 -2,0 5,7 10,0 10 6 17 9 ENE 1025,0 0,3 0,0
12.12.2018 07:00:00 -2,0 -2,4 -1,8 5,8 10,1 9 5 16 8 ENE 1024,7 0,3 0,0
12.12.2018 06:00:00 -1,8 -2,2 -1,6 5,9 10,0 7 4 18 10 ENE 1024,8 0,5 0,0
12.12.2018 05:00:00 -1,6 -2,0 -1,5 6,0 10,1 10 5 18 10 ENE 1025,2 0,4 0,0
12.12.2018 04:00:00 -1,4 -1,7 -5,1 6,1 10,1 12 7 23 12 E 1025,2 0,5 0,0
12.12.2018 03:00:00 -2,7 -3,2 -5,3 6,2 10,1 7 4 11 6 ESE 1025,6 3,4 0,0
12.12.2018 02:00:00 -2,4 -3,0 -4,6 6,3 10,1 5 3 7 4 ENE 1025,5 0,2 0,0
12.12.2018 01:00:00 -2,0 -2,7 -5,1 6,4 10,1 2 1 5 3 SSE 1025,7 0,6 0,0
12.12.2018 00:00:00 -1,2 -1,8 -3,2 6,5 10,1 3 2 5 3 ENE 1025,5 13 0,0
11.12.2018 23:00:00 -1,3 -2,0 -3,6 6,7 10,1 3 1 6 3 ENE 1025,7 8 0,0
11.12.2018 22:00:00 -1,0 -2,0 -3,4 6,7 10,1 4 2 7 4 ESE 1025,5 11 0,0
11.12.2018 21:00:00 -0,6 -1,9 -2,7 6,8 10,1 4 2 8 4 N 1025,8 19 0,0
11.12.2018 20:00:00 0,0 -1,4 -2,4 6,9 10,1 1 0 5 3 WNW 1025,7 20 0,0
11.12.2018 19:00:00 0,7 -1,2 -1,4 6,9 10,1 6 3 8 5 N 1025,4 20 0,0
11.12.2018 18:00:00 1,6 -0,3 0,1 6,9 10,1 6 3 8 5 WSW 1025,5 20 0,0
11.12.2018 17:00:00 2,8 -1,0 1,6 6,9 10,1 5 3 14 8 W 1025,2 20 0,0
11.12.2018 16:00:00 4,1 -1,1 4,4 6,8 10,1 7 4 15 8 W 1024,9 20 0,0
11.12.2018 15:00:00 4,3 -0,5 4,8 6,7 10,1 8 4 23 13 NW 1025,0 20 0,0
11.12.2018 14:00:00 5,5 -3,1 4,4 6,6 10,1 7 4 13 7 WNW 1025,2 20 0,0
11.12.2018 13:00:00 3,9 -0,3 4,5 6,5 10,1 8 4 16 9 W 1025,7 20 0,0
11.12.2018 12:00:00 5,0 1,5 7,3 6,5 10,1 4 2 9 5 W 1025,9 20 0,0
11.12.2018 11:00:00 3,7 2,5 3,9 6,5 10,1 4 2 10 5 W 1026,7 19 0,0
11.12.2018 10:00:00 3,0 2,1 0,1 6,5 10,1 5 3 9 5 WNW 1026,8 17 0,0
11.12.2018 09:00:00 0,8 0,4 -0,6 6,6 10,1 4 2 9 5 W 1027,5 1,0 0,0
11.12.2018 08:00:00 1,4 0,8 0,1 6,7 10,2 4 2 13 7 WSW 1027,1 7 0,0
11.12.2018 07:00:00 1,4 1,0 0,0 6,8 10,1 7 4 13 7 W 1027,2 7 0,0
11.12.2018 06:00:00 1,6 1,2 0,2 6,8 10,1 7 4 14 7 W 1027,2 4,2 0,0
11.12.2018 05:00:00 1,8 1,2 0,3 6,9 10,1 5 3 14 7 W 1027,2 7 0,0
11.12.2018 04:00:00 2,2 1,8 -0,1 7,0 10,2 9 5 16 9 WSW 1027,1 10 0,0
11.12.2018 03:00:00 1,8 1,1 0,3 7,1 10,1 9 5 18 10 SW 1027,2 15 0,0
11.12.2018 02:00:00 2,7 1,7 1,4 7,1 10,1 10 5 25 13 W 1026,8 20 0,0
11.12.2018 01:00:00 3,1 1,8 2,0 7,2 10,2 16 9 28 15 W 1026,7 20 0,4
11.12.2018 00:00:00 3,9 2,9 2,6 7,2 10,2 10 5 23 12 W 1027,1 18 0,0
10.12.2018 23:00:00 4,4 3,7 3,2 7,2 10,2 11 6 24 13 WSW 1027,2 18 0,0
10.12.2018 22:00:00 4,1 3,4 3,0 7,3 10,2 10 5 19 10 WSW 1026,8 20 0,0
10.12.2018 21:00:00 4,5 3,6 3,9 7,3 10,2 10 5 22 12 SW 1027,2 20 0,0
10.12.2018 20:00:00 4,6 3,4 3,8 7,4 10,2 12 6 22 12 WSW 1027,3 20 0,0
10.12.2018 19:00:00 4,6 3,6 3,3 7,4 10,2 10 5 24 13 W 1027,3 20 0,0
10.12.2018 18:00:00 4,0 3,0 2,9 7,5 10,2 9 5 32 18 W 1027,2 20 1,2
10.12.2018 17:00:00 4,4 3,5 3,3 7,5 10,2 10 6 26 14 W 1026,6 20 0,0
10.12.2018 16:00:00 4,3 3,1 3,3 7,5 10,2 14 7 40 21 W 1026,6 20 0,2
10.12.2018 15:00:00 3,7 2,4 3,0 7,4 10,2 14 8 32 18 W 1026,5 18 1,8
10.12.2018 14:00:00 5,7 3,7 5,2 7,3 10,2 15 8 29 16 W 1026,0 16 0,2
10.12.2018 13:00:00 5,8 3,6 6,5 7,3 10,2 14 8 32 17 W 1026,6 20 0,0
10.12.2018 12:00:00 5,6 3,4 4,8 7,3 10,2 16 9 33 18 W 1027,1 20 0,0
10.12.2018 11:00:00 4,8 3,5 4,6 7,3 10,2 14 8 31 17 W 1027,3 20 0,0
10.12.2018 10:00:00 4,8 3,6 4,3 7,4 10,2 13 7 27 14 W 1026,8 20 0,0
10.12.2018 09:00:00 4,6 3,7 3,8 7,4 10,3 14 7 31 17 W 1026,4 20 0,0
10.12.2018 08:00:00 4,6 3,3 3,8 7,5 10,2 14 8 27 15 W 1026,0 20 0,0
10.12.2018 07:00:00 4,7 3,2 3,7 7,5 10,2 12 7 29 16 W 1025,7 20 0,0
10.12.2018 06:00:00 4,6 3,7 3,5 7,5 10,2 13 7 29 16 WSW 1024,8 20 0,0
10.12.2018 05:00:00 4,3 3,3 3,2 7,6 10,2 16 9 33 18 WSW 1024,7 20 0,2
10.12.2018 04:00:00 3,8 2,9 3,3 7,6 10,3 9 5 38 21 WSW 1024,7 20 1,8
10.12.2018 03:00:00 4,7 3,2 3,9 7,6 10,2 20 11 49 26 W 1024,2 8 1,6
10.12.2018 02:00:00 5,2 3,5 4,8 7,7 10,2 16 8 32 18 W 1023,4 20 0,0
10.12.2018 01:00:00 5,4 3,7 4,7 7,7 10,2 12 7 30 16 SSW 1022,8 20 0,0
10.12.2018 00:00:00 5,7 4,2 5,0 7,7 10,3 14 8 30 16 WSW 1022,1 20 0,0
09.12.2018 23:00:00 5,9 4,5 5,3 7,7 10,2 17 9 41 22 W 1020,7 20 0,0
09.12.2018 22:00:00 6,2 4,5 5,5 7,7 10,2 18 10 41 22 W 1019,2 20 0,0
09.12.2018 21:00:00 6,6 4,8 5,7 7,8 10,2 22 12 58 32 W 1017,9 20 1,0
09.12.2018 20:00:00 6,7 5,6 5,9 7,8 10,3 27 15 56 31 W 1016,5 12 1,2
09.12.2018 19:00:00 6,7 5,3 5,8 7,8 10,3 34 18 66 36 WSW 1015,4 17 0,6
09.12.2018 18:00:00 6,5 5,3 5,6 7,8 10,3 26 14 63 34 W 1014,5 12 0,2
09.12.2018 17:00:00 6,7 5,2 5,8 7,8 10,3 30 16 70 38 W 1013,8 18 0,9
09.12.2018 16:00:00 6,5 5,3 5,9 7,8 10,3 22 12 61 33 W 1012,9 9 3,0
09.12.2018 15:00:00 6,7 5,2 6,0 7,8 10,3 26 14 57 31 WSW 1012,1 14 0,2
09.12.2018 14:00:00 6,3 5,3 5,8 7,8 10,3 25 13 45 24 WSW 1012,5 4,6 0,6
09.12.2018 13:00:00 6,0 4,8 5,4 7,9 10,3 25 13 53 29 WSW 1013,3 6 1,6
09.12.2018 12:00:00 6,7 4,2 5,7 7,9 10,3 26 14 54 29 SW 1013,1 20 0,4
09.12.2018 11:00:00 7,7 3,9 7,1 7,9 10,3 24 13 57 31 WSW 1013,2 20 0,0
09.12.2018 10:00:00 7,2 4,0 6,3 7,9 10,3 30 16 60 32 W 1012,9 20 0,0
09.12.2018 09:00:00 6,8 4,5 6,0 7,9 10,3 23 12 53 29 WSW 1013,1 20 0,0
09.12.2018 08:00:00 6,4 4,9 5,1 8,1 10,3 26 14 59 32 W 1012,2 20 0,2
09.12.2018 07:00:00 5,9 4,4 4,6 8,1 10,3 35 19 78 42 W 1011,2 6 4,7
09.12.2018 06:00:00 5,2 3,5 3,1 8,1 10,3 42 23 89 48 W 1010,2 1,6 7,3
09.12.2018 05:00:00 8,6 5,9 6,6 8,1 10,3 31 17 78 42 WSW 1009,1 20 2,0
09.12.2018 04:00:00 8,5 6,3 7,3 8,1 10,3 32 17 79 43 WSW 1009,4 9 0,2
09.12.2018 03:00:00 8,5 6,8 7,3 8,1 10,3 31 17 74 40 W 1009,4 20 3,1
09.12.2018 02:00:00 8,4 7,0 7,7 8,1 10,4 30 16 69 38 WSW 1009,5 9 3,4
09.12.2018 01:00:00 8,8 7,1 7,4 8,1 10,4 35 19 72 39 WSW 1009,7 14 0,8
09.12.2018 00:00:00 8,5 6,5 7,5 8,1 10,4 40 22 83 45 SW 1010,4 12 0,0
08.12.2018 23:00:00 8,4 6,2 7,0 8,1 10,3 37 20 70 38 SW 1011,6 20 0,0
08.12.2018 22:00:00 7,7 6,3 6,6 8,1 10,3 32 17 64 35 SW 1012,9 17 0,2
08.12.2018 21:00:00 7,2 6,0 6,2 8,1 10,3 30 16 58 31 SW 1014,2 16 0,2
08.12.2018 20:00:00 6,9 5,7 6,2 8,1 10,3 26 14 54 29 SW 1015,2 11 0,2
08.12.2018 19:00:00 6,9 5,2 5,9 8,2 10,4 23 12 56 30 SW 1016,2 17 0,0
08.12.2018 18:00:00 6,7 5,0 5,7 8,2 10,3 23 12 46 25 SW 1016,9 20 0,0
08.12.2018 17:00:00 6,6 4,8 5,6 8,2 10,3 20 11 56 30 WSW 1017,6 19 0,0
08.12.2018 16:00:00 6,6 4,6 5,7 8,2 10,3 29 15 54 29 WSW 1017,9 20 0,0
08.12.2018 15:00:00 6,4 4,9 5,7 8,2 10,3 26 14 47 25 WSW 1017,7 20 0,4
08.12.2018 14:00:00 6,3 4,8 5,5 8,2 10,3 27 15 57 31 WSW 1018,0 18 0,2
08.12.2018 13:00:00 6,1 4,7 5,4 8,2 10,3 22 12 54 29 WSW 1018,6 9 0,6
08.12.2018 12:00:00 6,1 4,3 5,3 8,3 10,3 25 14 60 32 SW 1018,5 15 0,0
08.12.2018 11:00:00 6,5 3,5 5,5 8,3 10,3 29 16 61 33 WSW 1018,7 20 0,0
08.12.2018 10:00:00 6,3 2,9 5,4 8,4 10,3 27 15 47 25 SW 1018,7 20 0,0
08.12.2018 09:00:00 5,6 2,8 4,3 8,4 10,3 25 13 53 28 SW 1019,0 20 0,0
08.12.2018 08:00:00 5,5 2,7 4,6 8,5 10,3 27 15 49 26 SW 1019,2 20 0,0
08.12.2018 07:00:00 5,5 2,5 4,3 8,6 10,3 21 11 49 26 WSW 1019,5 19 0,0
08.12.2018 06:00:00 5,4 2,6 4,2 8,7 10,3 21 11 50 27 WSW 1019,2 20 0,0
08.12.2018 05:00:00 5,4 2,6 4,2 8,7 10,3 16 8 40 22 W 1019,2 20 0,0
08.12.2018 04:00:00 5,2 2,5 4,1 8,8 10,3 22 12 45 24 WSW 1019,5 20 0,0
08.12.2018 03:00:00 5,7 2,5 4,7 8,9 10,3 22 12 41 22 WSW 1019,5 20 0,0
08.12.2018 02:00:00 5,5 2,7 4,7 9,0 10,3 18 10 48 26 WSW 1019,6 20 0,0
08.12.2018 01:00:00 5,3 2,6 4,8 9,1 10,3 21 12 50 27 WSW 1019,5 20 0,0
08.12.2018 00:00:00 5,5 3,2 4,8 9,1 10,3 27 14 54 29 WSW 1018,8 20 0,0
07.12.2018 23:00:00 5,3 3,8 4,9 9,2 10,3 23 12 51 27 WSW 1017,5 20 0,0
07.12.2018 22:00:00 6,3 4,1 5,2 9,2 10,3 30 16 66 36 W 1015,6 20 2,4
07.12.2018 21:00:00 8,9 5,8 7,4 9,3 10,3 21 12 86 46 W 1012,9 20 0,4
07.12.2018 20:00:00 10,1 6,4 9,1 9,3 10,3 36 19 76 41 WSW 1011,2 20 0,0
07.12.2018 19:00:00 9,8 7,2 8,1 9,3 10,3 28 15 53 29 SW 1010,5 20 0,4
07.12.2018 18:00:00 9,8 6,7 8,1 9,4 10,3 26 14 54 29 SW 1011,1 20 0,0
07.12.2018 17:00:00 10,0 6,5 9,4 9,3 10,3 21 11 44 24 WSW 1012,2 20 0,0
07.12.2018 16:00:00 10,0 6,7 9,7 9,3 10,3 19 11 44 24 WSW 1012,9 20 0,0
07.12.2018 15:00:00 10,0 7,2 9,8 9,3 10,3 23 13 43 23 WSW 1013,7 20 0,0
07.12.2018 14:00:00 9,8 7,4 9,5 9,3 10,3 13 7 32 17 WSW 1015,1 20 0,0
07.12.2018 13:00:00 9,8 6,9 9,4 9,3 10,2 16 8 34 19 W 1016,7 20 0,0
07.12.2018 12:00:00 10,0 6,9 9,3 9,3 10,3 21 11 39 21 WSW 1018,1 20 0,0
07.12.2018 11:00:00 9,8 7,4 9,3 9,3 10,3 16 9 39 21 WSW 1019,2 20 0,0
07.12.2018 10:00:00 9,5 7,3 8,7 9,3 10,3 20 11 37 20 WSW 1019,8 20 0,0

tt = temperature
td = dewpoint
tt 5cm = temperature 5cm
tt -20cm = temperature -20cm
tt -100cm = temperature -100cm
ff = wind speed
fx = gusts
dd = wind direction
ppp = reduced air pressure
vv = visibility
rr = precipitation

Next stations